sat.trackr.live / text

‹ back to catalog

ROADS 1

NORAD 64535 · 2025-135H

PAYLOAD ACTIVE UNKNOWN

§ Identity

Operator
Country
US
Launch date
2025-06-23
Launch site
AFWTR
Launch vehicle
Mass (kg)
RCS (m²)

External: N2YO · Heavens-Above · Gunter

§ Orbital elements

Epoch: 2026-09-21T20:28:09.592320Z

Period
94.52 min
Inclination
97.4752°
Eccentricity
0.0004138
Mean motion
15.23418234 rev/d
Perigee alt
492.7 km
Apogee alt
498.4 km
Semi-major
6,873.7 km
B*
1.7857e-4
RAAN
19.3825°
Arg perigee
181.0870°
Mean anomaly
179.0358°
Rev number
6,957

§ Raw data

ROADS 11 64535U 25135H   26264.85288880  .00004180  00000+0  17857-3 0  99992 64535  97.4752  19.3825 0004138 181.0870 179.0358 15.23418234 69571

JSON: /api/v1/satellites/64535 · /tle

For live sub-satellite position, see the globe view (requires WebGL).

§ Visibility from observer

Set your observer location to see the next 7 days of passes ≥ 10°. The values pass through the URL so the page stays shareable.

No JS? Fill the form by hand. The geolocation button needs JavaScript.

§ Radio — SatNOGS DB

ModeDescriptionDownlinkUplink
QPSK Mode S - QPSK 1Msps 2.402 GHz
GFSK Mode U - GFSK9k6 435.400 MHz
FSK AX.100 Mode 5 Mode V - GFSK19k2 - Backup 145.900 MHz
FSK AX.100 Mode 5 Mode U - GFSK4k8 (inactive) 435.400 MHz
FSK AX.100 Mode 5 Mode U/U - GMSK1k2 - Digipeater (inactive) 435.400 MHz 435.400 MHz
FSK AX.100 Mode 5 Mode V/V - GMSK1k2 - Digipeater (inactive) 145.900 MHz 145.900 MHz

6 transmitters · refreshed weekly from db.satnogs.org